Regional Weather Roundup
Issued by NWS Little Rock, AR

Home | Current Version | Previous Version | Text Only | Print | Product List | Glossary On
Versions: 1 2 3 4 5 6 7 8 9 10 11 12 13 14 15 16 17 18 19 20 21 22 23 24 25 26 27
000
ASUS44 KLZK 241205
RWRLZK

WEATHER ROUNDUP FOR ARKANSAS
NATIONAL WEATHER SERVICE LITTLE ROCK AR
700 AM CDT SUN JUL 24 2016

NOTE: "FAIR" INDICATES FEW OR NO CLOUDS BELOW 12,000 FEET WITH NO
SIGNIFICANT WEATHER AND/OR OBSTRUCTIONS TO VISIBILITY.

ARZ001-003-010-029-241300-
NORTHWEST ARKANSAS

CITY           SKY/WX    TMP DP  RH WIND       PRES   REMARKS
FAYETTEVILLE   CLEAR     73  72  96 CALM      29.99R
6HR MIN TEMP:  72; 6HR MAX TEMP:  79;

FORT SMITH     CLEAR     77  72  84 E3        29.94R
6HR MIN TEMP:  76; 6HR MAX TEMP:  81;

HARRISON       CLEAR     74  71  91 CALM      29.99R
6HR MIN TEMP:  72; 6HR MAX TEMP:  78;

BENTONVILLE    CLEAR     75  68  78 CALM      29.99R
6HR MIN TEMP:  75; 6HR MAX TEMP:  81;

ROGERS         CLEAR     77  71  82 S3        29.99R
6HR MIN TEMP:  74; 6HR MAX TEMP:  80;

SILOAM SPGS    CLEAR     75  64  69 CALM      29.99S
6HR MIN TEMP:  73; 6HR MAX TEMP:  79;

HIGHFILL       CLEAR     75  72  90 CALM      29.98R
6HR MIN TEMP:  74; 6HR MAX TEMP:  80;

SPRINGDALE     CLEAR     75  72  88 CALM      30.00R
$$

ARZ004-005-016-241300-
NORTH CENTRAL ARKANSAS

CITY           SKY/WX    TMP DP  RH WIND       PRES   REMARKS
BATESVILLE     CLOUDY    75  70  83 CALM      29.96R
6HR MIN TEMP:  73; 6HR MAX TEMP:  75;

FLIPPIN        PTCLDY    73  70  88 CALM      29.94R
6HR MIN TEMP:  73; 6HR MAX TEMP:  79;

MTN HOME       PTCLDY    74  72  93 CALM      29.96R
6HR MIN TEMP:  73; 6HR MAX TEMP:  76;

$$

ARZ040-041-241300-
WEST CENTRAL ARKANSAS

CITY           SKY/WX    TMP DP  RH WIND       PRES   REMARKS
MENA           CLEAR     72  72 100 CALM      30.00R
MOUNT IDA      CLOUDY    74  74 100 CALM      29.96R
6HR MIN TEMP:  74; 6HR MAX TEMP:  75;

$$

ARZ009-017-025-026-028-241300-
NORTHEAST ARKANSAS

CITY           SKY/WX    TMP DP  RH WIND       PRES   REMARKS
CORNING          N/A     77  77 100 SE3       29.96S
JONESBORO      CLOUDY    77  74  90 SE6       29.96R
6HR MIN TEMP:  75; 6HR MAX TEMP:  78; 6HR PCP: TRACE;

NEWPORT        CLOUDY    77  75  93 CALM      29.96R
6HR MIN TEMP:  75; 6HR MAX TEMP:  77;

WALNUT RIDGE   MOCLDY    75  73  94 SE5       29.95R
6HR MIN TEMP:  75; 6HR MAX TEMP:  79;

BLYTHEVILLE    MOSUNNY   78  76  93 S3        29.97R
6HR MIN TEMP:  77; 6HR MAX TEMP:  79;

$$

ARZ022-023-033-042-044-241300-
CENTRAL ARKANSAS

CITY           SKY/WX    TMP DP  RH WIND       PRES   REMARKS
LITTLE ROCK    CLOUDY    78  73  84 S5        29.96R
6HR MIN TEMP:  77; 6HR MAX TEMP:  78;

JACKSONVILLE   CLOUDY    75  75 100 SE1       29.95R
6HR MIN TEMP:  74; 6HR MAX TEMP:  76;

SEARCY         CLOUDY    74  74 100 CALM      29.96R
6HR MIN TEMP:  73; 6HR MAX TEMP:  74;

HOT SPRINGS    CLOUDY    76  73  91 SW3       29.97R
6HR MIN TEMP:  75; 6HR MAX TEMP:  78;

RUSSELLVILLE   CLOUDY    76  74  93 CALM      29.95R
6HR MIN TEMP:  75; 6HR MAX TEMP:  78;

$$

ARZ036-241300-
EAST ARKANSAS

CITY           SKY/WX    TMP DP  RH WIND       PRES   REMARKS
WEST MEMPHIS   LGT RAIN  76  74  93 SE9       29.96R
6HR MIN TEMP:  75; 6HR MAX TEMP:  77; 6HR PCP: TRACE;

$$

ARZ050-053-066-070-073-241300-
SOUTHWEST ARKANSAS

CITY           SKY/WX    TMP DP  RH WIND       PRES   REMARKS
CAMDEN         CLEAR     72  68  88 CALM      29.96R FOG
TEXARKANA      CLOUDY    74  72  93 CALM      29.97R
6HR MIN TEMP:  72; 6HR MAX TEMP:  74;

EL DORADO      CLOUDY    74  72  93 N3        29.96R
6HR MIN TEMP:  72; 6HR MAX TEMP:  74;

DE QUEEN       CLOUDY    71  71 100 CALM      29.96R FOG
6HR MIN TEMP:  69; 6HR MAX TEMP:  73;

$$

ARZ056-057-069-241300-
SOUTHEAST ARKANSAS

CITY           SKY/WX    TMP DP  RH WIND       PRES   REMARKS
PINE BLUFF     CLOUDY    75  73  93 CALM      29.96R
6HR MIN TEMP:  73; 6HR MAX TEMP:  75;

STUTTGART      CLOUDY    79  70  73 CALM      29.95S
6HR MIN TEMP:  75; 6HR MAX TEMP:  79;

MONTICELLO     CLOUDY    76  72  87 CALM      29.96R
6HR MIN TEMP:  75; 6HR MAX TEMP:  76;


$$






USA.gov is the U.S. government's official web portal to all federal, state and local government web resources and services.